Location: Baia Mare
(47.6567°N, 23.5850°E)
Time: 16:55:27
(UTC+03:00)

ISS - Pass Details

Date: 17 May 2018
Orbit: 402 x 407 km, 51.6° (Epoch: 23 May)

Event Time Altitude Azimuth Distance (km) Brightness Sun altitude
Exits shadow 03:39:02 - 289° (WNW) 1,726 -0.8 -16.4°
Reaches altitude 10° 03:39:43 10° 292° (WNW) 1,459 -1.1 -16.3°
Maximum altitude 03:42:49 39° 4° (N) 616 -2.5 -16.0°
Drops below altitude 10° 03:45:56 10° 76° (ENE) 1,458 -0.3 -15.7°
Sets 03:48:05 0° 84° (E) 2,317 0.7 -15.5°
